Location: Unspecified
(0.0000°N, 0.0000°E)
Time: 09:18:02
(UTC+00:00)

HTV-X1 - Pass Details

Date: 14 April 2026
Orbit: 463 x 473 km, 51.6° (Epoch: 10 April)

Event Time Altitude Azimuth Distance (km) Brightness Sun altitude
Exits shadow 04:36:20 19° 345° (NNW) 1,163 ? -20.7°
Drops below altitude 10° 04:37:49 10° 4° (N) 1,604 ? -20.4°
Sets 04:40:12 0° 17° (NNE) 2,478 ? -19.8°
